Wetbulb
74.53 77.90 79.93 80.22 80.16 80.07 79.88 79.34 78.93 78.68 78.30 78.47 78.34 78.04 78.43 78.57 78.63 78.81 78.64 78.40 78.34 77.58 77.10 76.67 76.48 76.81 76.61 76.58 76.73 76.89 77.16 77.23 77.07 76.91 76.65 76.50 76.40 76.44 76.43 76.04 75.48 73.76 75.01
76.03 77.70 79.78 80.02 80.08 80.17 79.88 79.69 79.16 78.95 78.37 78.33 78.56 78.35 78.26 78.15 77.73 78.18 78.29 78.29 78.02 78.08 77.36 76.86 76.73 76.61 76.77 76.90 76.70 77.35 77.19 77.77 77.84 77.05 76.65 76.32 76.25 75.83 75.58 76.19 75.45 74.62 75.10
75.98 77.55 78.40 79.41 79.81 79.88 79.85 80.00 79.70 79.08 78.17 78.10 78.32 78.15 77.71 77.89 77.33 77.37 77.72 77.24 77.01 76.74 76.86 76.61 76.77 76.70 76.74 76.98 76.68 76.83 77.35 77.97 78.10 77.39 76.50 74.23 73.86 75.80 76.48 76.14 75.58 75.34 74.92
76.51 76.57 77.50 79.24 79.80 79.75 79.95 80.02 79.88 79.32 78.55 78.23 78.13 77.76 77.84 77.46 77.36 77.46 77.28 77.33 77.03 76.72 76.14 76.14 76.50 76.72 76.44 76.54 76.61 76.62 77.41 77.02 77.24 77.09 73.87 73.58 74.53 76.32 76.14 75.85 75.54 75.41 75.18
75.98 76.48 77.92 80.01 79.99 80.21 80.35 80.03 79.80 79.36 78.80 78.64 78.09 77.59 77.30 77.15 77.17 77.53 77.04 77.23 76.86 76.65 76.33 76.12 76.20 76.36 76.35 76.53 76.62 76.53 77.37 77.42 76.83 76.20 73.80 71.51 72.60 75.82 76.07 75.84 75.49 75.32 74.54
75.98 77.11 79.26 80.15 80.14 80.08 80.20 80.03 79.82 79.41 78.68 78.51 78.67 77.60 77.15 77.20 77.38 77.37 76.58 76.45 76.59 76.77 76.35 76.39 76.45 76.56 76.54 76.61 76.46 76.65 77.27 77.03 75.67 74.36 73.51 74.11 73.68 76.87 76.15 75.86 75.73 75.62 75.15
75.75 76.71 77.97 79.70 79.75 79.64 79.68 79.81 79.61 79.20 78.84 78.54 78.37 77.88 77.63 77.28 77.75 77.57 76.77 76.73 76.90 76.80 76.82 76.33 75.86 76.59 76.41 76.85 76.67 76.95 77.61 76.71 74.50 72.48 73.44 73.60 74.35 76.97 76.23 75.84 75.63 75.43 74.91
75.49 76.40 77.60 79.57 79.85 79.72 79.60 79.67 79.50 79.37 79.24 78.82 78.62 78.41 77.89 77.88 78.22 78.07 77.13 76.82 76.62 76.46 77.08 76.62 76.04 76.83 76.27 76.73 77.07 77.12 77.03 76.48 75.10 73.92 73.40 73.65 75.40 76.50 76.07 75.99 75.70 75.31 74.84
76.00 75.83 76.88 77.81 78.13 79.15 79.84 79.60 79.73 79.66 79.41 79.26 79.39 79.09 78.62 78.01 77.23 77.60 77.64 77.19 76.41 76.42 76.57 76.49 76.51 76.67 76.50 76.24 76.86 76.54 76.41 75.83 73.77 73.45 74.39 74.24 76.35 76.94 76.44 76.31 75.81 74.53 75.29
75.41 75.55 75.62 75.85 76.40 76.73 77.22 79.95 79.93 79.85 79.79 79.15 78.83 78.30 78.09 77.54 76.86 77.26 77.91 77.40 76.54 76.47 76.17 76.28 76.69 76.90 77.34 77.43 76.44 76.58 75.94 75.94 73.00 73.21 73.33 73.53 76.30 76.89 76.70 76.15 75.85 75.65 75.19
75.02 74.55 75.17 75.37 75.46 75.57 75.89 77.36 79.33 79.30 79.03 78.70 78.08 78.06 77.29 74.34 74.77 75.66 76.21 77.43 76.56 76.67 76.29 76.10 76.83 76.95 77.57 76.57 76.27 76.16 75.77 72.31 72.23 72.46 73.76 75.15 76.57 76.84 76.38 76.91 76.35 76.00 74.90
73.03 73.90 74.90 75.37 75.41 75.85 76.64 75.56 75.85 75.59 75.20 74.79 74.21 74.59 74.75 73.56 73.75 75.35 76.02 77.05 76.77 76.44 76.50 77.01 77.38 76.93 76.44 73.87 73.67 75.20 72.75 72.31 71.28 73.60 72.45 75.53 76.36 77.51 76.49 77.19 76.31 76.15 75.56
73.22 73.95 74.05 74.17 74.62 73.64 74.99 74.39 74.46 73.71 72.70 73.63 72.23 73.68 72.59 73.18 72.89 72.20 73.57 74.91 73.85 76.00 73.77 75.79 75.74 74.76 74.17 73.21 72.59 72.15 72.06 71.44 72.49 73.37 74.08 75.77 76.29 76.83 76.65 76.53 76.72 75.71 75.66
72.09 73.31 74.00 74.22 74.11 73.43 73.39 72.95 73.17 73.37 73.26 72.28 72.97 72.47 70.86 69.86 69.85 70.80 72.99 73.15 73.17 73.54 73.09 73.59 73.89 73.77 72.93 73.45 73.04 71.79 71.68 72.23 71.80 73.33 73.20 76.01 76.13 76.72 76.84 76.70 76.38 76.07 75.80
71.30 73.15 73.70 74.35 73.14 73.44 71.87 70.60 66.60 69.74 72.66 72.53 72.06 71.84 70.39 68.54 67.95 69.38 71.37 72.37 72.80 73.55 72.98 73.20 73.11 72.81 72.58 72.75 72.90 72.93 72.18 72.92 72.91 73.00 72.99 75.14 75.93 76.72 77.34 76.70 76.24 75.99 75.71
71.53 72.54 73.95 73.62 73.79 72.86 70.65 70.02 65.87 68.45 71.83 71.59 69.98 71.52 69.95 68.92 69.87 71.27 71.20 70.86 71.95 72.59 72.41 72.77 72.02 71.91 71.60 72.40 72.39 72.82 73.06 73.13 73.65 72.19 72.43 71.37 75.21 76.49 77.25 77.03 76.92 76.19 75.93
70.67 72.84 72.47 72.93 73.49 73.00 72.38 71.03 68.97 71.74 71.52 69.77 66.73 66.48 71.33 70.24 71.45 70.77 70.62 70.35 70.67 72.49 72.96 72.41 72.68 72.42 71.84 72.72 71.53 72.53 73.22 73.30 73.47 73.01 72.58 72.95 73.47 75.36 76.29 76.90 76.97 76.97 76.54
71.22 71.79 72.62 74.51 73.55 73.61 73.18 73.54 72.83 71.64 70.72 70.71 67.68 68.46 71.95 71.34 70.84 71.31 70.51 69.93 70.89 72.31 72.89 72.02 71.54 71.41 71.05 71.65 70.75 71.92 72.54 72.66 72.98 72.52 73.04 72.48 72.43 72.52 75.95 77.00 76.22 76.42 76.12
71.72 72.27 71.85 72.51 72.88 73.63 73.86 72.82 72.18 71.15 71.41 71.20 70.77 71.58 72.06 71.89 71.58 71.35 70.60 70.39 70.53 71.24 71.69 71.21 70.17 70.45 69.93 71.04 70.76 70.64 70.86 70.80 71.44 72.60 72.44 72.98 73.08 73.41 73.60 75.99 76.42 76.22 75.68
73.41 73.30 72.84 72.93 73.29 73.32 73.10 72.17 71.75 70.73 70.77 70.04 69.84 71.00 71.90 72.18 72.47 70.93 70.82 70.65 70.67 69.99 70.36 71.26 69.12 69.75 69.67 69.98 71.65 70.94 70.12 70.49 71.40 70.84 71.31 72.46 72.45 73.03 73.26 72.83 73.66 72.83 74.10
73.13 72.55 72.48 71.89 72.23 72.10 71.17 69.85 69.22 68.26 67.97 68.33 69.40 70.49 70.10 70.65 70.92 70.14 69.57 70.50 69.61 69.16 69.20 70.15 69.95 68.43 68.87 70.54 67.81 68.06 68.84 70.05 70.44 71.42 71.53 70.68 71.97 72.57 72.71 72.67 72.14 71.89 72.30
72.28 72.46 72.14 71.71 71.38 71.16 70.73 69.65 68.93 68.53 68.87 69.11 68.85 70.48 70.65 69.70 69.61 70.45 69.45 69.47 69.20 68.96 69.47 70.01 69.33 67.45 68.71 69.27 65.95 65.61 62.78 65.42 69.03 70.81 71.10 70.72 70.30 71.37 72.16 72.02 71.70 71.09 70.66
72.23 72.43 71.96 71.48 71.01 70.65 70.19 69.53 68.77 68.66 67.79 67.12 68.33 67.88 69.62 69.92 69.09 69.25 69.54 69.50 68.67 68.53 68.06 69.25 69.95 67.87 66.94 69.18 68.46 65.71 62.49 60.98 65.90 68.75 69.28 70.06 70.07 70.15 70.47 71.81 71.96 71.55 71.30
71.95 72.97 72.27 71.77 71.20 70.70 70.21 68.09 66.62 65.74 64.38 65.31 66.51 66.85 68.26 69.11 68.98 69.50 69.10 69.27 69.00 68.98 68.44 69.15 70.57 68.66 67.97 66.58 67.68 69.95 68.18 67.56 62.72 62.52 67.00 68.73 69.49 69.64 69.65 70.38 71.43 71.78 71.58
73.32 73.05 72.79 71.72 70.78 70.58 69.91 68.21 66.76 65.11 65.54 66.48 67.20 66.62 66.78 67.77 68.48 69.63 69.16 69.07 68.69 69.01 69.12 68.71 68.67 68.49 68.13 67.59 65.93 66.76 67.14 67.65 66.89 64.69 61.57 62.90 67.86 69.34 69.65 69.71 71.27 71.52 71.90
72.73 72.68 72.32 70.89 69.73 68.91 68.56 67.40 66.40 65.82 66.78 65.47 65.81 66.12 66.23 67.47 68.15 69.42 69.39 69.11 69.28 68.78 68.74 69.14 69.00 69.72 68.94 67.65 67.27 67.00 66.39 65.27 64.39 64.00 61.90 62.33 63.22 66.53 68.82 69.85 69.60 70.31 70.80
MSLP
1010.87 1010.88 1011.18 1011.37 1011.71 1011.78 1012.02 1012.59 1012.98 1013.21 1013.51 1013.61 1013.94 1014.33 1014.53 1014.76 1015.04 1015.28 1015.64 1015.82 1015.87 1016.19 1016.39 1016.66 1016.97 1016.94 1017.02 1017.05 1017.22 1017.42 1017.54 1017.67 1017.99 1018.16 1018.39 1018.59 1018.82 1019.04 1019.19 1019.25 1019.45 1019.61 1019.84
1010.32 1010.92 1011.20 1011.53 1011.89 1012.03 1012.21 1012.65 1013.17 1013.48 1013.71 1013.92 1014.24 1014.41 1014.71 1015.16 1015.29 1015.48 1015.78 1015.96 1016.07 1016.23 1016.53 1016.78 1017.00 1017.16 1017.13 1017.16 1017.36 1017.55 1017.74 1017.79 1018.04 1018.26 1018.55 1018.87 1019.03 1019.32 1019.43 1019.44 1019.73 1019.83 1019.96
1010.36 1010.91 1011.35 1011.66 1011.88 1011.94 1012.20 1012.67 1013.14 1013.57 1013.87 1014.30 1014.61 1014.68 1014.84 1015.22 1015.59 1015.67 1015.89 1016.09 1016.31 1016.48 1016.69 1016.93 1017.10 1017.28 1017.36 1017.45 1017.53 1017.64 1017.92 1018.08 1018.14 1018.26 1018.64 1019.04 1019.21 1019.22 1019.39 1019.67 1019.91 1020.03 1020.22
1010.61 1011.02 1011.35 1011.73 1011.93 1012.01 1012.29 1012.68 1013.07 1013.48 1013.86 1014.33 1014.68 1014.90 1015.12 1015.41 1015.60 1015.92 1016.00 1016.11 1016.36 1016.54 1016.86 1017.00 1017.18 1017.36 1017.55 1017.69 1017.79 1017.94 1018.09 1018.31 1018.38 1018.48 1018.77 1019.00 1019.08 1019.35 1019.57 1019.90 1020.11 1020.30 1020.48
1010.37 1011.07 1011.45 1011.60 1011.83 1012.00 1012.28 1012.62 1013.06 1013.50 1013.84 1014.22 1014.63 1014.92 1015.17 1015.50 1015.76 1015.92 1016.23 1016.13 1016.28 1016.56 1016.78 1017.01 1017.23 1017.40 1017.64 1017.85 1018.08 1018.15 1018.45 1018.51 1018.59 1018.60 1018.81 1019.06 1019.26 1019.52 1019.79 1020.02 1020.28 1020.49 1020.72
1010.80 1011.08 1011.30 1011.52 1011.86 1012.01 1012.42 1012.72 1013.09 1013.50 1013.88 1014.19 1014.48 1014.81 1015.12 1015.36 1015.72 1015.97 1016.24 1016.38 1016.41 1016.46 1016.83 1016.96 1017.12 1017.36 1017.59 1017.85 1018.00 1018.21 1018.45 1018.64 1018.70 1018.81 1018.83 1019.00 1019.28 1019.62 1019.96 1020.25 1020.38 1020.59 1020.85
1011.34 1010.90 1011.16 1011.39 1011.92 1012.29 1012.57 1012.93 1013.22 1013.55 1013.90 1014.31 1014.70 1014.97 1015.18 1015.44 1015.73 1015.97 1016.17 1016.46 1016.49 1016.55 1016.71 1016.95 1017.16 1017.28 1017.48 1017.75 1017.92 1018.12 1018.48 1018.67 1018.81 1019.10 1019.03 1019.25 1019.49 1019.75 1020.08 1020.41 1020.65 1020.88 1021.07
1010.79 1011.16 1011.18 1011.56 1012.06 1012.42 1012.74 1013.10 1013.38 1013.68 1013.96 1014.28 1014.72 1015.06 1015.30 1015.54 1015.76 1016.05 1016.22 1016.34 1016.69 1016.71 1016.69 1016.92 1017.21 1017.25 1017.34 1017.66 1017.87 1018.14 1018.57 1018.68 1018.83 1019.11 1019.26 1019.29 1019.69 1020.01 1020.23 1020.63 1020.86 1021.03 1021.25
1010.65 1011.09 1011.63 1011.95 1012.33 1012.56 1012.75 1013.06 1013.38 1013.72 1014.01 1014.36 1014.72 1015.08 1015.37 1015.62 1015.82 1015.95 1016.28 1016.43 1016.60 1016.83 1016.79 1017.00 1017.17 1017.42 1017.32 1017.58 1017.82 1018.17 1018.64 1018.83 1019.04 1019.30 1019.51 1019.47 1019.73 1020.10 1020.40 1020.73 1020.88 1021.10 1021.27
1010.91 1011.38 1011.70 1012.14 1012.39 1012.77 1012.98 1013.21 1013.51 1013.74 1014.10 1014.57 1014.94 1015.24 1015.51 1015.76 1015.99 1016.04 1016.23 1016.44 1016.51 1016.79 1016.83 1017.04 1017.17 1017.37 1017.49 1017.49 1017.79 1018.11 1018.78 1019.09 1019.37 1019.50 1019.67 1019.63 1019.69 1019.91 1020.38 1020.74 1021.01 1021.21 1021.36
1011.16 1011.28 1011.71 1012.02 1012.33 1012.55 1012.92 1013.18 1013.46 1013.76 1014.24 1014.58 1015.05 1015.51 1015.78 1016.06 1016.11 1016.34 1016.24 1016.36 1016.44 1016.49 1016.78 1016.95 1017.15 1017.35 1017.50 1017.48 1017.73 1018.04 1018.58 1019.06 1019.17 1019.38 1019.53 1019.72 1019.93 1020.14 1020.41 1020.73 1021.04 1021.29 1021.45
1011.16 1011.47 1011.83 1011.96 1012.09 1012.26 1012.63 1013.31 1013.76 1013.99 1014.34 1014.74 1015.13 1015.46 1015.80 1016.00 1016.21 1016.24 1016.38 1016.26 1016.24 1016.38 1016.64 1016.88 1016.98 1017.27 1017.67 1017.66 1017.81 1018.01 1018.44 1018.79 1019.04 1019.20 1019.33 1019.54 1019.82 1020.03 1020.51 1020.77 1021.10 1021.28 1021.43
1010.90 1011.17 1011.47 1011.82 1011.76 1012.13 1012.87 1013.55 1013.93 1014.48 1014.67 1014.93 1015.32 1015.56 1015.95 1015.99 1016.05 1016.28 1016.44 1016.27 1016.28 1016.32 1016.43 1016.87 1017.00 1017.20 1017.72 1017.90 1017.90 1017.95 1018.18 1018.69 1018.86 1018.91 1019.04 1019.30 1019.63 1019.94 1020.41 1020.62 1020.97 1021.17 1021.26
1010.56 1010.75 1011.06 1011.52 1011.86 1012.14 1012.64 1013.22 1013.47 1013.87 1014.22 1014.69 1014.67 1014.99 1015.66 1016.29 1016.38 1016.31 1016.49 1016.41 1016.44 1016.48 1016.38 1016.83 1017.00 1017.14 1017.50 1017.67 1017.81 1017.87 1018.16 1018.47 1018.61 1018.79 1019.18 1019.24 1019.60 1019.88 1020.23 1020.43 1020.75 1020.98 1021.17
1010.18 1010.58 1010.97 1011.36 1011.64 1012.23 1012.67 1012.97 1013.81 1013.83 1013.87 1014.20 1014.81 1015.25 1015.40 1015.96 1016.32 1016.19 1016.42 1016.39 1016.31 1016.35 1016.50 1016.53 1016.80 1017.02 1017.41 1017.46 1017.60 1017.76 1017.92 1018.11 1018.41 1018.84 1019.10 1019.28 1019.43 1019.76 1020.02 1020.29 1020.48 1020.79 1021.01
1009.66 1010.22 1010.72 1011.12 1011.39 1011.87 1012.51 1013.07 1013.67 1013.85 1013.73 1013.84 1014.12 1014.16 1015.03 1015.62 1016.15 1016.05 1016.12 1016.30 1016.22 1016.13 1016.43 1016.20 1016.55 1016.88 1017.06 1017.30 1017.49 1017.60 1017.74 1017.81 1018.06 1018.90 1018.97 1018.82 1019.37 1019.56 1019.77 1020.06 1020.24 1020.51 1020.69
1009.37 1009.88 1010.39 1010.75 1011.12 1011.73 1012.39 1012.81 1012.98 1013.31 1013.60 1013.79 1013.89 1014.22 1014.41 1015.03 1015.44 1015.63 1015.82 1016.30 1015.96 1015.84 1015.97 1016.12 1016.36 1016.63 1017.02 1017.21 1017.53 1017.50 1017.43 1017.51 1017.90 1018.11 1018.59 1018.91 1019.14 1019.32 1019.64 1019.84 1019.90 1020.17 1020.32
1009.78 1010.25 1010.49 1010.74 1010.94 1011.36 1011.82 1012.31 1012.52 1012.88 1013.23 1013.47 1013.55 1013.74 1013.91 1014.59 1014.97 1015.25 1015.61 1015.85 1015.56 1015.70 1015.86 1016.10 1016.39 1016.73 1017.07 1017.30 1017.53 1017.49 1017.46 1017.33 1017.62 1017.89 1018.16 1018.48 1018.70 1019.01 1019.21 1019.47 1019.55 1019.78 1020.09
1009.47 1010.16 1010.63 1010.89 1011.10 1011.18 1011.69 1012.21 1012.50 1012.34 1012.66 1013.08 1013.65 1013.79 1013.82 1014.15 1014.42 1014.67 1014.89 1015.21 1015.20 1015.41 1015.75 1016.06 1016.50 1016.74 1017.01 1017.28 1017.40 1017.41 1017.30 1017.39 1017.43 1017.60 1018.10 1018.27 1018.47 1018.69 1018.87 1019.12 1019.46 1019.49 1019.76
1009.06 1009.52 1010.35 1010.95 1011.32 1011.42 1011.51 1011.98 1012.41 1012.60 1012.61 1012.48 1012.79 1012.91 1012.97 1013.34 1013.82 1014.37 1014.46 1014.69 1014.91 1015.38 1015.77 1016.09 1016.48 1016.74 1016.93 1017.02 1017.16 1017.27 1017.22 1017.22 1017.15 1017.63 1017.93 1017.89 1018.12 1018.23 1018.53 1019.03 1019.11 1019.30 1019.41
1009.19 1009.41 1009.55 1010.38 1010.98 1011.36 1011.60 1012.06 1012.57 1012.74 1012.79 1012.93 1012.80 1012.71 1012.83 1012.99 1013.32 1013.90 1014.37 1014.41 1014.56 1015.14 1015.65 1015.77 1016.25 1016.69 1016.96 1016.81 1017.26 1017.44 1017.36 1017.16 1017.19 1017.34 1017.36 1017.63 1017.67 1017.89 1018.24 1018.57 1018.71 1019.01 1019.17
1008.34 1009.69 1009.87 1010.10 1010.72 1011.32 1011.70 1011.92 1012.34 1012.60 1012.64 1012.72 1012.65 1012.57 1012.70 1012.93 1013.22 1013.56 1013.77 1014.11 1014.43 1014.89 1015.27 1015.66 1015.97 1016.54 1016.65 1016.57 1016.97 1017.34 1017.68 1017.55 1017.26 1017.06 1017.30 1017.50 1017.55 1017.63 1017.94 1018.23 1018.43 1018.72 1018.70
1008.57 1009.28 1009.64 1010.01 1010.56 1011.10 1011.45 1011.78 1012.33 1012.65 1012.87 1012.88 1012.69 1012.69 1012.50 1012.53 1012.76 1012.93 1013.20 1013.69 1014.21 1014.51 1014.87 1015.17 1015.57 1015.99 1016.43 1016.51 1016.35 1016.84 1017.26 1017.84 1017.64 1017.27 1017.26 1017.18 1017.18 1017.43 1017.55 1017.70 1017.99 1018.22 1018.47
1008.73 1009.04 1009.35 1009.99 1010.60 1011.03 1011.16 1011.59 1012.19 1012.64 1013.14 1012.93 1012.84 1012.61 1012.34 1012.23 1012.41 1012.57 1012.80 1013.26 1013.91 1014.19 1014.55 1014.80 1015.10 1015.45 1015.84 1016.41 1016.39 1016.43 1016.65 1017.42 1018.37 1018.34 1017.32 1017.13 1017.00 1017.08 1017.26 1017.51 1017.61 1017.79 1018.00
1008.33 1009.40 1010.01 1010.72 1010.99 1011.28 1011.20 1011.65 1012.20 1012.43 1012.60 1012.45 1012.30 1012.21 1011.95 1011.91 1011.94 1012.14 1012.42 1012.94 1013.57 1013.90 1014.15 1014.56 1014.75 1015.00 1015.35 1015.86 1016.09 1016.35 1016.76 1017.24 1017.88 1018.39 1017.93 1017.35 1017.15 1016.77 1016.72 1016.87 1016.87 1017.14 1017.43
1008.77 1009.69 1010.52 1011.04 1011.29 1011.23 1011.53 1012.13 1012.54 1012.68 1012.64 1012.35 1012.10 1011.93 1011.57 1011.46 1011.63 1011.91 1012.11 1012.64 1013.06 1013.58 1013.80 1014.08 1014.27 1014.61 1014.99 1015.41 1015.72 1016.12 1016.52 1017.65 1018.15 1017.92 1017.79 1017.26 1017.03 1016.59 1016.38 1016.42 1016.61 1016.57 1016.71
Wind_Speed
10 13 16 15 15 17 17 15 13 14 14 15 15 14 14 15 15 14 12 12 13 11 11 9 8 9 8 8 10 12 15 17 16 17 16 16 15 14 14 18 17 13 16
17 13 16 16 15 16 16 15 13 13 13 14 14 14 14 13 13 13 12 11 11 11 10 9 8 7 8 8 9 13 15 16 15 16 16 14 13 11 11 17 16 13 17
17 14 15 16 15 15 15 16 15 13 14 13 13 14 14 12 12 12 12 10 10 10 9 9 9 8 8 8 9 11 14 14 14 16 15 5 5 11 15 17 16 16 17
17 13 13 15 14 14 14 15 16 15 15 14 13 13 12 11 12 11 11 11 8 9 8 8 8 8 7 8 8 9 12 12 13 15 7 8 8 14 15 15 15 15 15
16 13 14 16 14 13 14 15 16 15 14 14 14 14 13 12 11 11 10 10 8 7 7 8 8 8 7 7 7 9 12 11 11 12 5 5 6 11 14 15 14 15 14
15 15 17 17 15 14 14 15 16 16 15 14 15 15 14 13 12 10 9 8 7 8 7 7 8 9 8 7 7 8 11 10 11 5 4 10 8 14 15 14 14 15 14
14 15 16 18 15 13 13 14 15 16 15 14 14 14 14 12 11 10 9 7 7 7 8 7 8 9 8 8 8 7 9 9 4 2 4 7 8 14 14 14 14 15 14
16 10 13 18 16 14 13 13 14 15 16 15 14 14 14 12 11 8 8 8 6 7 7 8 8 9 10 8 9 8 7 10 4 2 4 7 12 14 14 15 15 14 14
14 12 9 10 13 15 14 13 13 14 15 15 15 13 13 12 11 11 8 6 6 6 6 7 9 9 10 9 10 9 8 7 3 2 5 6 14 14 16 15 15 15 13
12 12 10 7 7 6 6 13 13 14 15 15 14 13 13 11 10 10 9 7 7 7 7 7 9 9 9 10 10 9 7 6 4 2 3 5 15 16 16 15 14 14 13
9 12 10 10 8 8 7 8 12 14 14 14 13 12 8 3 5 7 7 10 9 8 8 9 9 9 9 10 10 9 7 3 4 2 4 14 14 14 15 14 13 14 14
9 7 9 9 8 8 7 5 5 5 4 4 5 5 4 4 4 5 8 8 10 9 8 8 9 11 9 3 3 7 2 3 2 4 4 16 16 16 15 14 14 14 15
10 6 8 8 8 7 6 4 3 2 2 3 3 3 1 1 3 2 2 3 3 8 3 4 4 4 4 3 3 4 3 2 2 4 6 15 16 16 16 15 13 13 13
10 9 8 8 8 7 5 5 5 5 4 3 5 7 4 1 1 2 2 4 3 3 4 4 3 4 4 6 5 5 4 3 2 4 6 14 13 14 15 16 15 14 13
9 10 9 8 7 6 7 5 4 2 4 5 4 3 4 3 3 3 3 3 4 3 3 5 4 4 5 6 5 5 5 4 3 3 3 9 12 13 15 16 16 16 15
9 10 10 8 7 8 6 5 5 4 3 4 5 7 8 5 5 4 4 4 3 4 4 4 4 4 4 4 5 5 5 5 5 7 4 5 14 14 15 16 16 16 16
10 12 11 9 7 8 9 6 4 4 5 5 5 3 8 7 6 6 4 4 5 4 5 4 4 3 3 3 5 5 5 6 6 6 7 4 7 17 17 16 16 15 15
8 8 7 8 8 7 6 6 5 5 5 5 5 5 7 10 8 5 5 5 5 4 4 3 3 3 4 4 3 4 3 3 3 5 5 3 5 7 13 16 16 15 14
11 10 8 7 8 8 7 4 4 3 3 5 6 6 11 10 9 7 6 5 6 4 4 4 3 3 3 3 3 3 3 2 3 2 5 6 7 6 6 11 14 12 13
12 11 8 6 7 7 5 4 2 2 2 3 4 4 9 9 11 7 5 6 5 4 4 4 4 3 3 4 4 2 2 2 3 4 4 4 6 7 5 4 7 6 11
11 11 10 9 7 5 2 3 1 2 3 2 3 2 2 5 7 6 5 5 5 6 6 6 4 5 3 4 3 1 1 2 2 4 3 4 5 6 7 8 6 4 5
14 10 8 8 7 5 3 2 2 1 2 3 3 4 3 4 6 6 6 5 6 4 6 6 5 4 4 4 3 3 1 3 3 5 3 4 6 5 9 9 8 8 6
11 11 9 8 8 6 5 2 1 1 2 2 3 3 4 5 6 6 7 6 5 5 5 5 5 6 4 4 5 5 3 2 1 2 5 5 5 4 4 8 8 8 7
10 9 8 8 8 6 6 3 2 2 2 3 3 3 5 5 6 6 7 7 6 5 6 6 6 5 5 4 1 2 2 5 1 4 3 3 4 4 5 5 7 7 7
11 7 8 8 7 6 6 5 3 2 2 4 4 6 6 5 6 6 7 7 6 4 5 6 6 5 4 4 3 3 2 2 2 4 4 3 2 4 4 5 8 7 10
12 11 10 9 7 7 9 7 4 4 5 4 4 4 4 3 4 5 6 7 6 5 6 7 6 8 7 4 3 4 4 3 3 4 3 4 4 3 4 4 5 6 7
Wind_Direction
134 138 137 130 135 130 126 125 122 119 115 109 105 101 95 94 96 94 98 104 107 109 114 114 102 97 85 98 107 114 122 123 121 119 118 115 119 124 128 112 113 113 111
133 139 132 135 137 133 129 129 131 125 121 115 119 115 107 104 106 106 96 99 108 112 116 117 114 97 90 107 113 122 127 127 127 122 116 118 118 116 133 114 116 116 116
132 136 135 136 139 136 137 141 140 135 128 126 125 121 120 117 119 119 113 108 109 113 119 121 116 106 108 117 122 134 136 134 132 129 125 111 111 111 119 116 120 119 117
130 135 134 132 133 134 140 145 145 143 140 138 133 128 129 134 131 134 132 129 128 127 129 131 128 119 123 133 135 146 142 142 145 145 131 139 118 118 117 120 122 120 121
134 134 134 129 127 125 134 141 145 148 149 145 142 143 144 143 145 145 145 141 142 131 147 150 147 137 140 149 152 150 148 158 167 165 185 145 129 126 127 128 127 126 124
133 135 130 128 124 126 137 143 147 152 154 154 153 155 155 154 156 153 155 157 143 143 156 165 164 159 153 156 163 164 159 171 180 209 197 141 130 137 139 137 136 136 133
140 144 136 132 131 130 132 142 149 153 157 160 160 160 161 163 161 161 167 164 161 147 151 156 167 165 163 170 185 202 164 169 191 214 99 119 136 143 147 140 139 135 138
127 135 138 137 137 133 132 141 153 158 161 163 166 165 167 168 165 172 167 160 174 160 151 159 170 170 165 186 202 208 166 179 193 187 168 132 145 143 146 145 146 145 143
129 130 133 136 141 143 146 152 158 163 166 168 168 169 170 172 175 167 175 166 175 175 151 174 175 181 175 179 214 209 192 187 173 289 200 139 145 148 149 152 153 152 151
130 134 133 131 128 131 150 159 165 169 170 170 172 175 177 180 182 180 169 179 182 189 169 187 184 189 186 179 208 222 195 196 228 285 142 162 154 154 156 160 162 159 158
143 139 146 146 146 150 160 175 174 175 173 170 174 183 181 163 194 197 195 193 191 191 193 188 194 190 194 184 198 225 210 158 224 227 151 167 154 162 162 166 169 167 163
128 139 153 150 155 156 164 169 152 166 152 146 161 164 160 198 199 204 208 212 188 193 199 196 185 191 197 178 193 214 187 210 211 166 166 166 163 168 174 168 172 175 173
147 146 154 160 159 154 135 145 139 128 138 134 132 112 172 34 146 195 221 201 175 198 176 195 177 186 194 196 195 193 209 194 156 143 168 168 168 174 178 169 177 183 183
156 162 158 160 163 171 149 148 167 159 151 150 162 165 145 138 257 267 201 198 190 214 172 182 177 189 204 216 197 197 200 204 185 138 180 169 174 175 183 180 182 187 192
161 156 157 160 164 156 138 162 101 187 184 162 151 172 150 171 224 216 228 211 199 186 200 171 185 188 215 202 194 196 203 199 155 117 132 167 183 183 188 191 188 193 195
152 152 153 165 172 150 147 163 165 186 198 162 197 169 178 174 208 213 193 215 219 196 208 171 181 195 201 196 202 217 213 210 195 165 185 209 212 193 197 196 195 197 199
143 144 150 149 152 145 149 161 183 190 164 177 220 205 178 188 199 190 182 215 220 217 192 172 176 176 180 202 213 212 211 195 199 177 176 186 204 206 202 202 197 202 204
135 139 147 156 160 164 158 152 167 168 175 192 214 217 196 192 194 187 176 211 208 203 180 166 167 178 196 187 214 206 218 202 239 170 168 201 187 198 203 205 206 201 206
153 153 172 173 168 158 156 147 158 218 192 185 199 211 203 189 197 183 178 205 199 192 185 160 190 173 183 183 211 189 180 193 205 173 173 181 184 190 198 210 214 198 204
150 150 158 147 152 156 146 147 142 174 270 241 217 225 186 190 190 186 193 190 184 177 199 167 167 203 171 195 191 175 200 209 199 216 205 189 196 186 149 229 212 186 196
149 151 153 143 158 145 117 121 52 250 268 275 318 45 340 210 189 185 194 195 179 181 192 187 165 173 214 183 126 17 307 225 287 262 214 206 200 161 172 202 195 175 191
159 164 146 155 153 149 126 134 149 211 271 252 270 283 223 211 216 193 190 194 192 174 184 189 160 173 185 183 147 110 118 336 274 245 222 215 222 186 189 192 183 196 192
158 162 161 160 156 143 138 119 138 4 334 299 287 278 261 216 223 196 202 190 200 174 186 183 173 170 165 202 173 143 97 217 37 309 228 214 213 200 184 186 190 193 191
159 169 150 140 130 129 126 109 188 192 240 235 243 248 260 244 219 209 199 197 195 187 181 197 183 177 141 173 117 169 134 116 212 305 303 253 231 221 190 196 189 204 207
150 106 99 104 104 111 108 96 57 347 281 266 265 270 245 229 217 202 191 189 188 191 184 198 193 172 163 155 160 126 124 113 175 236 282 297 292 237 200 190 187 193 206
108 108 118 127 125 101 89 86 60 0 310 313 310 299 255 227 194 191 185 182 178 184 198 196 195 187 168 155 151 140 111 98 254 231 235 255 215 244 210 200 184 197 200